Location: Erp
(42.9417°N, 1.2009°E)
Time: 08:31:20
(UTC+00:00)

BREEZE M DEB (TANK) - Pass Details

Date: 12 January 2026
Orbit: 296 x 13742 km, 49.5° (Epoch: 16 February)

Event Time Altitude Azimuth Distance (km) Brightness Sun altitude
Rises 17:10:19 0° 301° (WNW) 2,042 6.3 -5.4°
Reaches altitude 10° 17:12:04 10° 310° (NW) 1,162 4.9 -5.7°
Maximum altitude 17:14:05 40° 25° (NNE) 513 2.4 -6.0°
Drops below altitude 10° 17:17:09 10° 98° (E) 1,752 4.9 -6.5°
Enters shadow 17:20:23 - 106° (ESE) 3,380 6.4 -7.0°
